Las Vegas, NM

3:44 PM MDT on March 23, 2017 (GMT -0600)
Las Vegas Municipal

Weather History for KLVS - September, 2013

Change the Weather History Date:

Thursday, September 26, 2013

  Actual Average Record
Temperature  
Mean Temperature 65 °F -  
Max Temperature 75 °F 72 °F 85 °F (1953)
Min Temperature 57 °F 42 °F 23 °F (1970)
Growing Degree Days 15 (Base 50)    
Moisture  
Dew Point 35 °F    
Average Humidity 34    
Maximum Humidity 51    
Minimum Humidity 21    
Precipitation  
Precipitation 0.00 in - - ()
Sea Level Pressure  
Sea Level Pressure 29.63 in    
Wind  
Wind Speed 21 mph (SW)    
Max Wind Speed 30 mph    
Max Gust Speed 40 mph    
Visibility 10 miles    
Events      
Averages and records for this station are not official NWS values.
T = Trace of Precipitation, MM = Missing Value Source: NWS Daily Summary

Daily Weather History Graph

Daily Weather History Graph

Search for Another Location

Airport or City:

Trip Planner

Search our weather history database for the weather conditions in past years. The results will help you decide how hot, cold, wet, or windy it might be!

Date:

Astronomy

Sep. 26, 2013 Rise Set
Actual Time 6:51 AM MDT 6:51 PM MDT
Civil Twilight 6:26 AM MDT 7:16 PM MDT
Nautical Twilight 5:56 AM MDT 7:46 PM MDT
Astronomical Twilight 5:26 AM MDT 8:15 PM MDT
Moon No Moon Rise 1:35 PM MDT (9/26)
Length of Visible Light 12h 50m
Length of Day
11h 59m
Waning Gibbous, 54% of the Moon is Illuminated
Sep 26
Waning Gibbous
Sep 26
Last Quarter
Oct 4
New
Oct 11
First Quarter
Oct 18
Full

Hourly Weather History & Observations

Time (MDT) Temp. Dew Point Humidity Pressure Visibility Wind Dir Wind Speed Gust Speed Precip Events Conditions
12:53 AM 62.1 °F 36.0 °F 38% 29.57 in 10.0 mi SW 20.7 mph 28.8 mph N/A   Clear
1:53 AM 60.1 °F 35.1 °F 39% 29.59 in 10.0 mi SW 20.7 mph 29.9 mph N/A   Clear
2:53 AM 57.9 °F 36.0 °F 44% 29.59 in 10.0 mi SW 17.3 mph - N/A   Clear
3:53 AM 61.0 °F 34.0 °F 36% 29.57 in 10.0 mi WSW 19.6 mph 27.6 mph N/A   Clear
4:53 AM 61.0 °F 34.0 °F 36% 29.58 in 10.0 mi SW 17.3 mph 26.5 mph N/A   Clear
5:53 AM 57.9 °F 34.0 °F 41% 29.60 in 10.0 mi SW 19.6 mph 26.5 mph N/A   Clear
6:53 AM 59.0 °F 30.9 °F 35% 29.63 in 10.0 mi WSW 16.1 mph - N/A   Clear
7:53 AM 62.1 °F 30.0 °F 30% 29.64 in 10.0 mi WSW 21.9 mph 28.8 mph N/A   Clear
8:53 AM 66.0 °F 30.9 °F 27% 29.66 in 10.0 mi WSW 27.6 mph 34.5 mph N/A   Clear
9:53 AM 68.0 °F 32.0 °F 26% 29.68 in 10.0 mi WSW 29.9 mph 40.3 mph N/A   Clear
10:53 AM 70.0 °F 32.0 °F 25% 29.69 in 10.0 mi WSW 21.9 mph 31.1 mph N/A   Clear
11:53 AM 71.1 °F 32.0 °F 24% 29.67 in 10.0 mi WSW 23.0 mph 33.4 mph N/A   Clear
12:53 PM 72.0 °F 30.9 °F 22% 29.65 in 10.0 mi SW 27.6 mph 38.0 mph N/A   Clear
1:53 PM 73.9 °F 30.9 °F 21% 29.62 in 10.0 mi SW 29.9 mph 38.0 mph N/A   Clear
2:53 PM 73.9 °F 35.1 °F 24% 29.62 in 10.0 mi SW 28.8 mph 35.7 mph N/A   Clear
3:53 PM 73.9 °F 36.0 °F 25% 29.60 in 10.0 mi SSW 26.5 mph 34.5 mph N/A   Clear
4:53 PM 73.0 °F 37.0 °F 27% 29.60 in 10.0 mi SSW 24.2 mph 36.8 mph N/A   Clear
5:53 PM 71.1 °F 35.1 °F 27% 29.62 in 10.0 mi SSW 24.2 mph 35.7 mph N/A   Clear
6:53 PM 66.0 °F 36.0 °F 33% 29.64 in 10.0 mi SSW 20.7 mph 28.8 mph N/A   Clear
7:53 PM 64.0 °F 37.9 °F 38% 29.65 in 10.0 mi SSW 17.3 mph 26.5 mph N/A   Clear
8:53 PM 62.1 °F 39.9 °F 44% 29.66 in 10.0 mi SSW 19.6 mph - N/A   Clear
9:53 PM 57.9 °F 39.9 °F 51% 29.68 in 10.0 mi South 10.4 mph - N/A   Clear
10:53 PM 59.0 °F 37.9 °F 46% 29.67 in 10.0 mi South 12.7 mph - N/A   Clear
11:53 PM 57.0 °F 37.9 °F 49% 29.68 in 10.0 mi SSW 13.8 mph - N/A   Clear